Location: Unspecified
(50.0830°N, 0.0000°E)
Time: 23:57:04
(UTC+00:00)

Envisat - Pass Details

Date: 27 November 2019
Orbit: 764 x 766 km, 98.1° (Epoch: 07 December)

Event Time Altitude Azimuth Distance (km) Brightness Sun altitude
Rises 06:00:48 0° 22° (NNE) 3,244 6.3 -13.9°
Reaches altitude 10° 06:03:27 10° 35° (NE) 2,312 5.7 -13.5°
Maximum altitude 06:07:47 28° 93° (E) 1,423 5.3 -12.9°
Drops below altitude 10° 06:12:05 10° 151° (SSE) 2,297 6.2 -12.2°
Sets 06:14:42 0° 164° (SSE) 3,218 6.8 -11.8°
